| time (UTC) | temp C | wind direction | speed KPH | gust KPH | rain 1hr cm | rain 24hr cm | rain mn cm | humidity % | barometer mb |
| 20260510183030 | 10 | 178 | 1.6 | 4.8 | 0.00 | 0.00 | 0.00 | 91 | 1031.4 |
| 20260510182028 | 11 | 184 | 4.8 | 8.0 | 0.00 | 0.00 | 0.00 | 89 | 1031.3 |
| 20260510180523 | 11 | 161 | 6.4 | 8.0 | 0.00 | 0.00 | 0.00 | 89 | 1031.3 |
| 20260510175522 | 10 | 5 | 1.6 | 4.8 | 0.00 | 0.00 | 0.00 | 93 | 1031.2 |
| 20260510175026 | 10 | 4 | 3.2 | 6.4 | 0.00 | 0.00 | 0.00 | 92 | 1031.2 |
| 20260510174036 | 10 | 19 | 8.0 | 8.0 | 0.00 | 0.00 | 0.00 | 92 | 1031.3 |
| 20260510173042 | 11 | 18 | 8.0 | 9.7 | 0.00 | 0.00 | 0.00 | 90 | 1031.1 |
| 20260510172035 | 10 | 1 | 8.0 | 9.7 | 0.00 | 0.00 | 0.00 | 92 | 1031.0 |
| 20260510170518 | 10 | 11 | 6.4 | 9.7 | 0.00 | 0.00 | 0.00 | 91 | 1030.9 |
| 20260510165517 | 11 | 198 | 3.2 | 6.4 | 0.00 | 0.00 | 0.00 | 89 | 1030.8 |
| 20260510165021 | 11 | 219 | 3.2 | 6.4 | 0.00 | 0.00 | 0.00 | 90 | 1031.0 |
| 20260510164031 | 11 | 132 | 6.4 | 8.0 | 0.00 | 0.00 | 0.00 | 90 | 1031.0 |
| 20260510163031 | 11 | 248 | 3.2 | 4.8 | 0.00 | 0.00 | 0.00 | 92 | 1031.2 |
| 20260510162019 | 11 | 339 | 1.6 | 4.8 | 0.00 | 0.00 | 0.00 | 92 | 1031.2 |
| 20260510160534 | 11 | 238 | 0.0 | 3.2 | 0.00 | 0.00 | 0.00 | 92 | 1031.3 |
| 20260510155533 | 11 | 267 | 0.0 | 3.2 | 0.00 | 0.00 | 0.00 | 92 | 1031.5 |
| 20260510154522 | 11 | 238 | 1.6 | 3.2 | 0.00 | 0.00 | 0.00 | 94 | 1031.3 |
| 20260510153036 | 11 | 42 | 1.6 | 3.2 | 0.00 | 0.00 | 0.00 | 96 | 1031.4 |
| 20260510152041 | 11 | 262 | 1.6 | 4.8 | 0.00 | 0.00 | 0.00 | 95 | 1031.4 |
| 20260510150529 | 10 | 206 | 1.6 | 3.2 | 0.00 | 0.00 | 0.00 | 95 | 1031.4 |
| 20260510145527 | 10 | 123 | 1.6 | 3.2 | 0.00 | 0.00 | 0.00 | 95 | 1031.5 |
| 20260510144036 | 11 | 141 | 1.6 | 3.2 | 0.00 | 0.00 | 0.00 | 96 | 1031.5 |
| 20260510143020 | 11 | 317 | 1.6 | 3.2 | 0.00 | 0.00 | 0.00 | 95 | 1031.5 |
| 20260510142019 | 11 | 30 | 3.2 | 6.4 | 0.00 | 0.00 | 0.00 | 95 | 1031.8 |
| 20260510140534 | 11 | 20 | 3.2 | 4.8 | 0.00 | 0.00 | 0.00 | 95 | 1031.9 |
| 20260510135533 | 11 | 16 | 4.8 | 8.0 | 0.00 | 0.00 | 0.00 | 95 | 1031.7 |
| 20260510135017 | 11 | 183 | 3.2 | 6.4 | 0.00 | 0.00 | 0.00 | 95 | 1031.7 |
| 20260510134026 | 10 | 152 | 4.8 | 9.7 | 0.00 | 0.00 | 0.00 | 95 | 1031.5 |
| 20260510133034 | 11 | 155 | 6.4 | 9.7 | 0.00 | 0.00 | 0.00 | 94 | 1031.6 |
| 20260510132530 | 11 | 171 | 4.8 | 8.0 | 0.00 | 0.00 | 0.00 | 94 | 1031.8 |
| 20260510131520 | 11 | 188 | 3.2 | 8.0 | 0.00 | 0.00 | 0.00 | 93 | 1031.8 |
| 20260510130530 | 12 | 164 | 1.6 | 4.8 | 0.00 | 0.00 | 0.00 | 93 | 1031.9 |
| 20260510125528 | 12 | 118 | 1.6 | 4.8 | 0.00 | 0.00 | 0.00 | 92 | 1032.1 |
| 20260510124030 | 12 | 155 | 4.8 | 6.4 | 0.00 | 0.00 | 0.00 | 92 | 1032.3 |
| 20260510123022 | 12 | 0.0 | 0.0 | 0.00 | 0.00 | 0.00 | 91 | 1032.2 | |
| 20260510122020 | 12 | 0.0 | 0.0 | 0.00 | 0.00 | 0.00 | 90 | 1032.3 | |
| 20260510120535 | 12 | 0.0 | 0.0 | 0.00 | 0.00 | 0.00 | 88 | 1032.2 | |
| 20260510115533 | 13 | 0.0 | 1.6 | 0.00 | 0.00 | 0.00 | 87 | 1032.4 | |
| 20260510114530 | 13 | 115 | 0.0 | 3.2 | 0.00 | 0.00 | 0.00 | 86 | 1032.3 |
| 20260510113043 | 13 | 0.0 | 1.6 | 0.00 | 0.00 | 0.00 | 85 | 1032.0 | |
| 20260510112035 | 13 | 65 | 3.2 | 4.8 | 0.00 | 0.00 | 0.00 | 85 | 1032.1 |
| 20260510110530 | 13 | 110 | 3.2 | 8.0 | 0.00 | 0.00 | 0.00 | 85 | 1031.8 |
| 20260510105535 | 13 | 210 | 6.4 | 8.0 | 0.00 | 0.00 | 0.00 | 83 | 1031.7 |
| 20260510104518 | 14 | 192 | 4.8 | 6.4 | 0.00 | 0.00 | 0.00 | 82 | 1031.6 |
| 20260510103527 | 14 | 185 | 4.8 | 6.4 | 0.00 | 0.00 | 0.00 | 80 | 1031.6 |
| 20260510102526 | 14 | 184 | 6.4 | 11.3 | 0.00 | 0.00 | 0.00 | 81 | 1031.5 |
| 20260510101020 | 15 | 199 | 4.8 | 8.0 | 0.00 | 0.00 | 0.00 | 79 | 1031.4 |
| 20260510100019 | 15 | 208 | 4.8 | 11.3 | 0.00 | 0.00 | 0.00 | 79 | 1031.2 |
| 20260510095523 | 15 | 221 | 4.8 | 9.7 | 0.00 | 0.00 | 0.00 | 78 | 1031.3 |
| 20260510094533 | 15 | 139 | 4.8 | 11.3 | 0.00 | 0.00 | 0.00 | 77 | 1031.1 |
| 20260510093522 | 15 | 164 | 3.2 | 4.8 | 0.00 | 0.00 | 0.00 | 77 | 1031.0 |
| 20260510092520 | 16 | 90 | 4.8 | 12.9 | 0.00 | 0.00 | 0.00 | 76 | 1030.9 |
| 20260510091528 | 16 | 72 | 3.2 | 8.0 | 0.00 | 0.00 | 0.00 | 75 | 1030.7 |
| 20260510090529 | 16 | 78 | 4.8 | 12.9 | 0.00 | 0.00 | 0.00 | 73 | 1030.3 |
| 20260510085526 | 16 | 68 | 6.4 | 14.5 | 0.00 | 0.00 | 0.00 | 72 | 1030.1 |
| 20260510084529 | 17 | 78 | 6.4 | 12.9 | 0.00 | 0.00 | 0.00 | 69 | 1030.0 |
| 20260510083536 | 17 | 65 | 8.0 | 14.5 | 0.00 | 0.00 | 0.00 | 66 | 1029.7 |
| 20260510082523 | 17 | 71 | 4.8 | 9.7 | 0.00 | 0.00 | 0.00 | 64 | 1029.7 |
| 20260510081516 | 17 | 42 | 1.6 | 6.4 | 0.00 | 0.00 | 0.00 | 61 | 1029.3 |
| 20260510080526 | 18 | 81 | 0.0 | 3.2 | 0.00 | 0.00 | 0.00 | 59 | 1029.1 |
| 20260510075534 | 18 | 71 | 1.6 | 3.2 | 0.00 | 0.00 | 0.00 | 58 | 1028.9 |
| 20260510074524 | 18 | 56 | 0.0 | 3.2 | 0.00 | 0.00 | 0.00 | 57 | 1028.7 |
| 20260510073541 | 18 | 49 | 0.0 | 3.2 | 0.00 | 0.00 | 0.00 | 57 | 1028.4 |
| 20260510072523 | 18 | 18 | 0.0 | 1.6 | 0.00 | 0.00 | 0.00 | 56 | 1028.2 |
| 20260510071532 | 19 | 45 | 0.0 | 3.2 | 0.00 | 0.00 | 0.00 | 55 | 1028.0 |
| 20260510070520 | 20 | 5 | 8.0 | 11.3 | 0.00 | 0.00 | 0.00 | 54 | 1027.8 |
| 20260510065537 | 20 | 4 | 8.0 | 11.3 | 0.00 | 0.00 | 0.00 | 53 | 1027.8 |
| 20260510064519 | 20 | 2 | 8.0 | 14.5 | 0.00 | 0.00 | 0.00 | 52 | 1027.6 |
| 20260510063529 | 21 | 1 | 8.0 | 9.7 | 0.00 | 0.00 | 0.00 | 51 | 1027.6 |
| 20260510062518 | 21 | 7 | 9.7 | 14.5 | 0.00 | 0.00 | 0.00 | 49 | 1027.5 |
| 20260510061527 | 21 | 351 | 9.7 | 12.9 | 0.00 | 0.00 | 0.00 | 49 | 1027.4 |
| 20260510060536 | 21 | 2 | 9.7 | 14.5 | 0.00 | 0.00 | 0.00 | 48 | 1027.3 |
| 20260510055526 | 21 | 354 | 8.0 | 11.3 | 0.00 | 0.00 | 0.00 | 47 | 1027.3 |
| 20260510054534 | 23 | 349 | 8.0 | 11.3 | 0.00 | 0.00 | 0.00 | 44 | 1027.2 |
| 20260510053522 | 21 | 346 | 8.0 | 9.7 | 0.00 | 0.00 | 0.00 | 47 | 1027.2 |
| 20260510052532 | 22 | 21 | 6.4 | 9.7 | 0.00 | 0.00 | 0.00 | 46 | 1027.1 |
| 20260510051522 | 21 | 345 | 8.0 | 11.3 | 0.00 | 0.00 | 0.00 | 48 | 1027.1 |
| 20260510050532 | 21 | 359 | 8.0 | 12.9 | 0.00 | 0.00 | 0.00 | 47 | 1027.0 |
| 20260510045520 | 22 | 355 | 9.7 | 12.9 | 0.00 | 0.00 | 0.00 | 46 | 1027.0 |
| 20260510044537 | 22 | 349 | 8.0 | 11.3 | 0.00 | 0.00 | 0.00 | 46 | 1026.9 |
| 20260510043518 | 21 | 354 | 8.0 | 14.5 | 0.00 | 0.00 | 0.00 | 48 | 1027.0 |
| 20260510042527 | 21 | 7 | 8.0 | 11.3 | 0.00 | 0.00 | 0.00 | 48 | 1026.9 |
| 20260510041517 | 21 | 360 | 8.0 | 12.9 | 0.00 | 0.00 | 0.00 | 48 | 1026.9 |
| 20260510040526 | 21 | 14 | 9.7 | 14.5 | 0.00 | 0.00 | 0.00 | 48 | 1027.0 |
| 20260510035536 | 21 | 359 | 6.4 | 17.7 | 0.00 | 0.00 | 0.00 | 48 | 1027.1 |
| 20260510034525 | 20 | 360 | 6.4 | 9.7 | 0.00 | 0.00 | 0.00 | 47 | 1027.0 |
| 20260510033534 | 21 | 7 | 8.0 | 14.5 | 0.00 | 0.00 | 0.00 | 47 | 1027.1 |
| 20260510032524 | 20 | 1 | 4.8 | 8.0 | 0.00 | 0.00 | 0.00 | 49 | 1027.2 |
| 20260510031534 | 21 | 19 | 6.4 | 11.3 | 0.00 | 0.00 | 0.00 | 47 | 1027.2 |
| 20260510030522 | 20 | 345 | 9.7 | 16.1 | 0.00 | 0.00 | 0.00 | 49 | 1027.3 |
| 20260510025533 | 20 | 357 | 4.8 | 9.7 | 0.00 | 0.00 | 0.00 | 49 | 1027.4 |
| 20260510024521 | 20 | 333 | 9.7 | 14.5 | 0.00 | 0.00 | 0.00 | 48 | 1027.6 |
| 20260510023530 | 20 | 350 | 9.7 | 14.5 | 0.00 | 0.00 | 0.00 | 49 | 1027.7 |
| 20260510022519 | 18 | 316 | 6.4 | 12.9 | 0.00 | 0.00 | 0.00 | 51 | 1028.0 |
| 20260510021528 | 18 | 12 | 6.4 | 12.9 | 0.00 | 0.00 | 0.00 | 53 | 1028.1 |
| 20260510020517 | 18 | 351 | 4.8 | 11.3 | 0.00 | 0.00 | 0.00 | 52 | 1028.2 |
| 20260510015527 | 18 | 13 | 8.0 | 12.9 | 0.00 | 0.00 | 0.00 | 54 | 1028.2 |
| 20260510014537 | 18 | 359 | 11.3 | 16.1 | 0.00 | 0.00 | 0.00 | 56 | 1028.5 |
| 20260510013533 | 18 | 345 | 11.3 | 14.5 | 0.00 | 0.00 | 0.00 | 58 | 1028.7 |
| 20260510012541 | 17 | 349 | 9.7 | 14.5 | 0.00 | 0.00 | 0.00 | 62 | 1028.7 |
| 20260510011523 | 17 | 318 | 8.0 | 17.7 | 0.00 | 0.00 | 0.00 | 65 | 1028.7 |
| 20260510010532 | 16 | 296 | 3.2 | 6.4 | 0.00 | 0.00 | 0.00 | 65 | 1028.8 |
| 20260510005521 | 15 | 349 | 4.8 | 9.7 | 0.00 | 0.00 | 0.00 | 67 | 1028.8 |
| 20260510004531 | 15 | 326 | 6.4 | 9.7 | 0.00 | 0.00 | 0.00 | 67 | 1028.8 |
| 20260510003520 | 15 | 285 | 3.2 | 8.0 | 0.00 | 0.00 | 0.00 | 69 | 1028.8 |
| 20260510002529 | 14 | 305 | 3.2 | 6.4 | 0.00 | 0.00 | 0.00 | 71 | 1028.8 |
| 20260510001518 | 13 | 279 | 3.2 | 4.8 | 0.00 | 0.00 | 0.00 | 71 | 1028.7 |
| 20260510000527 | 13 | 210 | 3.2 | 6.4 | 0.00 | 0.00 | 0.00 | 70 | 1028.8 |
| 20260509235536 | 13 | 218 | 3.2 | 4.8 | 0.00 | 0.00 | 0.00 | 72 | 1028.7 |
| 20260509234525 | 12 | 173 | 3.2 | 6.4 | 0.00 | 0.00 | 0.00 | 75 | 1028.7 |
| 20260509233536 | 12 | 129 | 3.2 | 6.4 | 0.00 | 0.00 | 0.00 | 79 | 1028.7 |
| 20260509232524 | 11 | 170 | 4.8 | 6.4 | 0.00 | 0.00 | 0.00 | 81 | 1028.8 |
| 20260509231533 | 11 | 174 | 4.8 | 9.7 | 0.00 | 0.00 | 0.00 | 84 | 1028.8 |
| 20260509230529 | 11 | 185 | 3.2 | 8.0 | 0.00 | 0.00 | 0.00 | 86 | 1028.8 |
| 20260509225532 | 10 | 161 | 3.2 | 6.4 | 0.00 | 0.00 | 0.00 | 92 | 1028.9 |
| 20260509224522 | 9 | 95 | 3.2 | 4.8 | 0.00 | 0.00 | 0.00 | 98 | 1028.7 |
| 20260509223530 | 8 | 30 | 1.6 | 3.2 | 0.00 | 0.00 | 0.00 | 98 | 1028.7 |
| 20260509222526 | 8 | 168 | 1.6 | 3.2 | 0.00 | 0.00 | 0.00 | 98 | 1028.5 |
| 20260509221529 | 7 | 301 | 1.6 | 3.2 | 0.00 | 0.00 | 0.00 | 98 | 1028.5 |
| 20260509220531 | 7 | 156 | 1.6 | 4.8 | 0.00 | 0.00 | 0.00 | 98 | 1028.4 |
| 20260509215527 | 6 | 191 | 1.6 | 4.8 | 0.00 | 0.00 | 0.00 | 99 | 1028.4 |
| 20260509214535 | 6 | 177 | 0.0 | 3.2 | 0.00 | 0.00 | 0.00 | 99 | 1028.3 |
| 20260509213525 | 6 | 66 | 1.6 | 3.2 | 0.00 | 0.00 | 0.00 | 99 | 1028.1 |
| 20260509212541 | 6 | 181 | 1.6 | 3.2 | 0.00 | 0.00 | 0.00 | 99 | 1028.0 |
| 20260509211524 | 6 | 206 | 0.0 | 6.4 | 0.00 | 0.00 | 0.00 | 99 | 1027.9 |
| 20260509210546 | 7 | 209 | 3.2 | 6.4 | 0.00 | 0.00 | 0.00 | 98 | 1027.6 |
| 20260509205521 | 7 | 199 | 1.6 | 3.2 | 0.00 | 0.00 | 0.00 | 97 | 1027.5 |
| 20260509204529 | 7 | 19 | 0.0 | 3.2 | 0.00 | 0.00 | 0.00 | 97 | 1027.3 |
| 20260509203517 | 6 | 65 | 0.0 | 3.2 | 0.00 | 0.00 | 0.00 | 98 | 1027.3 |
| 20260509202527 | 7 | 204 | 0.0 | 1.6 | 0.00 | 0.00 | 0.00 | 97 | 1027.1 |
| 20260509201544 | 6 | 145 | 1.6 | 3.2 | 0.00 | 0.00 | 0.00 | 98 | 1027.1 |
| 20260509200525 | 6 | 175 | 1.6 | 3.2 | 0.00 | 0.00 | 0.00 | 98 | 1026.9 |
| 20260509195534 | 7 | 359 | 4.8 | 6.4 | 0.00 | 0.00 | 0.00 | 97 | 1026.8 |
| 20260509194523 | 6 | 47 | 4.8 | 8.0 | 0.00 | 0.00 | 0.00 | 97 | 1026.7 |
| 20260509193533 | 6 | 24 | 3.2 | 8.0 | 0.00 | 0.00 | 0.00 | 97 | 1026.6 |
| 20260509192529 | 6 | 151 | 0.0 | 3.2 | 0.00 | 0.00 | 0.00 | 97 | 1026.5 |
| 20260509191532 | 6 | 307 | 1.6 | 4.8 | 0.00 | 0.00 | 0.00 | 98 | 1026.4 |
| 20260509190521 | 6 | 227 | 0.0 | 3.2 | 0.00 | 0.00 | 0.00 | 98 | 1026.1 |
| 20260509185536 | 6 | 164 | 1.6 | 4.8 | 0.00 | 0.00 | 0.00 | 97 | 1026.0 |
| 20260509184520 | 6 | 16 | 3.2 | 4.8 | 0.00 | 0.00 | 0.00 | 97 | 1026.1 |